Location: Borea
(45.6167°N, 23.0167°E)
Time: 11:30:55
(UTC+00:00)

IRIDIUM 106 - Pass Details

Date: 03 February 2023
Orbit: 776 x 779 km, 86.4° (Epoch: 21 March)

Event Time Altitude Azimuth Distance (km) Brightness Sun altitude
Rises 17:21:31 0° 356° (N) 3,276 7.6 -18.6°
Reaches altitude 10° 17:23:52 10° 356° (N) 2,343 6.8 -19.0°
Maximum altitude 17:29:08 88° 270° (W) 786 4.3 -19.9°
Drops below altitude 10° 17:34:21 10° 180° (S) 2,323 6.8 -20.8°
Sets 17:36:41 0° 180° (S) 3,246 7.6 -21.2°
